Simultaneous Nadir Overpasses (SNOs) Predictions

Prediction of SNOs between METOP-B and NOAA-19 Satellite Orbit:

Table of predicted SNOs for the next 14.0 days since TLE Epoch: 12/6/2019
Index Date (METOP-B) Time (METOP-B) Lat,Lon (METOP-B) SZA (METOP-B ) Date (NOAA-19) Time (NOAA-19) Lat,Lon (NOAA-19) SZA (NOAA-19 ) Distance(km) Time Diff (sec)
1 12/17/2019 05:43:51 -79.80, -65.43 76.25 12/17/2019 05:42:41 -79.78, -67.60 76.41 42.76 70
2 12/17/2019 06:34:36 79.66, 100.66 103.56 12/17/2019 06:33:41 79.68, 100.73 103.57 2.40 55
3 12/17/2019 07:25:17 -79.66, -92.01 76.45 12/17/2019 07:24:38 -79.68, -92.00 76.44 1.89 39
4 12/17/2019 08:15:57 79.68, 75.50 103.59 12/17/2019 08:15:41 79.66, 75.44 103.56 2.68 16
5 12/17/2019 09:06:39 -79.65,-117.45 76.46 12/17/2019 09:06:38 -79.66,-117.29 76.44 3.28 1
6 12/17/2019 09:57:20 79.64, 49.78 103.53 12/17/2019 09:57:42 79.67, 49.86 103.57 3.69 22
7 12/17/2019 10:48:01 -79.64,-142.89 76.48 12/17/2019 10:48:39 -79.67,-142.88 76.44 3.30 38
8 12/17/2019 11:38:41 79.66, 24.61 103.56 12/17/2019 11:39:42 79.65, 24.57 103.56 1.44 61




NCC Satellite Simultaneous Nadir Overpasses (SNOs) Prediction Service
